Date,TemperatureHighF,TemperatureAvgF,TemperatureLowF,DewpointHighF,DewpointAvgF,DewpointLowF,HumidityHigh,HumidityAvg,HumidityLow,PressureMaxIn,PressureMinIn,WindSpeedMaxMPH,WindSpeedAvgMPH,GustSpeedMaxMPH,PrecipitationSumIn
2013-8-1,96,78,70,75,70,68,93,78,45,29.84,29.71,8,2,8,0.06
2013-8-2,92,74,64,71,66,63,96,80,43,29.88,29.78,4,0,4,0.00
2013-8-3,94,76,68,75,70,66,95,81,48,29.87,29.77,8,1,8,0.00
2013-8-4,95,82,68,73,66,60,93,60,36,29.89,29.76,12,2,12,0.01
2013-8-5,86,74,63,70,64,58,88,72,54,29.94,29.83,11,2,11,0.00
2013-8-6,80,71,63,69,66,61,94,84,71,29.91,29.83,11,3,11,0.01
2013-8-7,86,75,68,71,68,66,93,78,57,29.94,29.86,10,2,11,0.00
2013-8-8,87,77,70,74,70,67,92,81,63,29.92,29.85,11,2,11,0.06
2013-8-9,96,81,73,76,72,70,92,77,47,29.90,29.83,11,3,11,0.06
2013-8-10,96,78,70,76,71,66,94,82,48,29.95,29.88,21,2,21,0.31
2013-8-11,98,80,69,77,72,68,96,79,47,29.97,29.87,7,1,7,0.01
2013-8-12,100,83,70,77,71,67,95,72,41,29.91,29.79,14,1,14,1.13
2013-8-13,94,76,70,75,71,67,96,86,52,29.81,29.65,9,2,9,0.67
2013-8-14,80,73,62,68,63,57,92,75,48,29.93,29.70,4,1,4,0.00
2013-8-15,75,66,55,58,57,53,94,73,54,30.01,29.93,3,1,3,0.00
2013-8-16,78,64,55,63,58,53,97,82,56,30.02,29.94,5,1,5,0.00
2013-8-17,68,62,58,63,60,57,96,91,83,30.04,29.98,8,1,8,1.93
2013-8-18,82,69,64,68,65,63,98,88,62,30.06,29.96,6,1,6,0.34
2013-8-19,79,69,64,72,66,63,97,89,69,30.03,29.94,4,1,4,0.32
2013-8-20,86,73,63,72,67,62,97,84,57,30.04,29.95,5,1,5,0.00
2013-8-21,91,76,68,76,70,66,96,84,54,30.07,29.94,6,1,6,0.04
2013-8-22,96,80,69,74,70,65,94,74,46,29.99,29.85,8,1,8,0.00
2013-8-23,92,76,63,73,67,61,95,76,51,29.95,29.79,9,2,9,0.25
2013-8-24,86,72,60,66,60,57,95,71,42,30.14,29.94,12,2,12,0.01
2013-8-25,87,70,57,66,60,56,97,73,47,30.23,30.12,8,1,8,0.00
2013-8-26,92,71,53,65,59,52,98,71,36,30.16,29.95,5,1,5,0.00
2013-8-27,97,79,65,73,67,60,91,70,44,29.97,29.82,11,2,11,0.00
2013-8-28,88,78,68,74,70,65,93,77,58,29.85,29.73,7,2,7,0.00
2013-8-29,94,78,72,75,70,67,87,78,54,29.86,29.72,8,1,8,0.00
2013-8-30,93,77,66,71,67,64,97,75,44,29.92,29.78,6,1,6,0.00
2013-8-31,92,77,68,73,68,66,94,77,52,29.81,29.72,11,2,11,0.01